This is the latest recevied weather packets stored in our database for station/object AB8DT-10. If no packets are shown the sender has not sent any weather packets the latest 10 day(s).
| Time | Temp. | Humidity | Pressure | Rain* | Wind** | Luminosity | Snow |
|---|---|---|---|---|---|---|---|
| 1777732917 | 5.56° C | 56% | 0 hPa | 0 mm | - | - | - |
| 1777732617 | 5.56° C | 53% | 0 hPa | 0 mm | - | - | - |
| 1777732317 | 6.11° C | 56% | 0 hPa | 0 mm | - | - | - |
| 1777732017 | 5.56° C | 57% | 0 hPa | 0 mm | - | - | - |
| 1777731717 | 5.56° C | 56% | 0 hPa | 0 mm | - | - | - |
| 1777731417 | 5.56° C | 55% | 0 hPa | 0 mm | - | - | - |
| 1777731117 | 5.56° C | 58% | 0 hPa | 0 mm | - | - | - |
| 1777730518 | 5° C | 58% | 0 hPa | 0 mm | - | - | - |
| 1777730218 | 5° C | 58% | 0 hPa | 0 mm | - | - | - |
| 1777729918 | 5° C | 57% | 0 hPa | 0 mm | - | - | - |
| 1777729618 | 5° C | 59% | 0 hPa | 0 mm | - | - | - |
| 1777729317 | 5° C | 59% | 0 hPa | 0 mm | - | - | - |
| 1777729017 | 5° C | 60% | 0 hPa | 0 mm | - | - | - |
| 1777728717 | 4.44° C | 63% | 0 hPa | 0 mm | - | - | - |
| 1777728418 | 4.44° C | 68% | 0 hPa | 0 mm | - | - | - |
| 1777728117 | 4.44° C | 71% | 0 hPa | 0 mm | - | - | - |
| 1777727818 | 3.89° C | 71% | 0 hPa | 0 mm | - | - | - |
| 1777727517 | 3.89° C | 75% | 0 hPa | 0 mm | - | - | - |
| 1777727218 | 3.89° C | 78% | 0 hPa | 0 mm | - | - | - |
| 1777726918 | 3.33° C | 79% | 0 hPa | 0 mm | - | - | - |
| 1777726618 | 3.33° C | 80% | 0 hPa | 0 mm | - | - | - |
| 1777726318 | 2.78° C | 81% | 0 hPa | 0 mm | - | - | - |
| 1777726018 | 2.78° C | 81% | 0 hPa | 0 mm | - | - | - |
| 1777725718 | 2.22° C | 81% | 0 hPa | 0 mm | - | - | - |
| 1777725418 | 2.78° C | 83% | 0 hPa | 0 mm | - | - | - |
* Rain latest hour (hover to see other rain measurements)
** Current wind speed in m/s (hover to see current wind gust speed)